Location: Bothwell
(42.3833°S, 147.0000°E)
Time: 11:26:18
(UTC+11:00)

Envisat - Pass Details

Date: 07 December 2022
Orbit: 763 x 765 km, 98.2° (Epoch: 28 January)

Event Time Altitude Azimuth Distance (km) Brightness Sun altitude
Rises 03:15:57 0° 55° (NE) 3,232 6.2 -18.2°
Reaches altitude 10° 03:18:46 10° 70° (ENE) 2,315 5.6 -17.9°
Maximum altitude 03:22:27 21° 117° (ESE) 1,708 5.5 -17.5°
Drops below altitude 10° 03:26:10 10° 163° (SSE) 2,335 6.7 -17.2°
Sets 03:29:01 0° 179° (S) 3,269 7.2 -16.9°
